User: anonymous   Login
Location: Umburanas
(4.5000°S, 37.9667°W)
Time: 22:29:22
(UTC+00:00)
Language:

Maqsat 3 - Orbit

View from above orbital plane
View from above orbital plane
View from above satellite
View from above satellite

Ground track
Ground track

The orbit data is extracted from the following two-line orbital elements,

1 25503U 98059A   20023.03921517 -.00000084 +00000-0 +70942-2 0  9998
2 25503 007.3854 339.0552 7005893 013.4749 358.0970 02.24573997174430
Epoch (UTC): 23 January 2020 00:56:28
Eccentricity: 0.7005893
inclination: 7.3854°
perigee height: 997 km
apogee height: 35510 km
right ascension of ascending node: 339.0552°
argument of perigee: 13.4749°
revolutions per day: 2.24573997
mean anomaly at epoch: 358.0970°
orbit number at epoch: 17443

The dashed part of the orbit path shows where the satellite is in the earth's shadow,  

DLR